GW3591 Weather Reports


time (UTC)temp
C
wind
direction
speed
KPH
gust
KPH
rain 1hr
cm
rain 24hr
cm
rain mn
cm
humidity
%
barometer
mb
20260507101456 10 67 0.0 0.0 0.00 0.69 0.69 94 1013.7
20260507100953 10 318 0.0 0.0 0.00 0.69 0.69 95 1013.4
20260507100450 10 16 0.0 1.6 0.00 0.69 0.69 94 1013.5
20260507095948 10 289 0.0 0.0 0.00 0.69 0.69 94 1013.5
20260507095445 10 321 0.0 0.0 0.00 0.69 0.69 95 1013.3
20260507094942 11 281 1.6 3.2 0.00 0.69 0.69 96 1013.4
20260507094438 10 324 0.0 0.0 0.00 0.69 0.69 97 1013.7
20260507093935 10 41 0.0 0.0 0.00 0.69 0.69 98 1013.6
20260507093433 11 137 0.0 0.0 0.00 0.69 0.69 98 1013.7
20260507092931 11 284 0.0 0.0 0.00 0.69 0.69 99 1013.9
20260507092427 11 91 0.0 0.0 0.00 0.69 0.69 99 1013.8
20260507091924 11 21 0.0 0.0 0.00 0.69 0.69 99 1013.7
20260507091421 11 29 0.0 0.0 0.00 0.69 0.69 99 1013.7
20260507090916 11 42 0.0 0.0 0.00 0.69 0.69 99 1013.5
20260507090413 11 338 0.0 0.0 0.00 0.69 0.69 99 1013.5
20260507085909 11 49 0.0 0.0 0.00 0.69 0.69 99 1013.3
20260507085406 11 329 0.0 0.0 0.00 0.69 0.69 99 1013.3
20260507084904 11 68 0.0 0.0 0.00 0.69 0.69 98 1013.2
20260507084400 11 338 0.0 0.0 0.00 0.69 0.69 98 1013.3
20260507083858 11 25 0.0 0.0 0.00 0.69 0.69 98 1013.0
20260507083354 11 340 0.0 0.0 0.00 0.69 0.69 98 1013.0
20260507082850 11 341 0.0 0.0 0.00 0.69 0.69 98 1012.8
20260507082346 11 334 0.0 0.0 0.00 0.69 0.69 98 1012.7
20260507081843 11 294 0.0 0.0 0.00 0.69 0.69 98 1013.0
20260507081339 11 321 0.0 0.0 0.00 0.69 0.69 97 1012.8
20260507080836 11 317 0.0 0.0 0.00 0.69 0.69 97 1012.8
20260507080332 11 127 0.0 0.0 0.00 0.69 0.69 97 1012.8
20260507075828 11 334 0.0 0.0 0.00 0.69 0.69 97 1012.6
20260507075324 11 305 0.0 0.0 0.00 0.69 0.69 97 1012.3
20260507074821 11 321 1.6 1.6 0.18 0.69 0.69 96 1012.5
20260507074318 11 214 0.0 0.0 0.18 0.69 0.69 96 1012.4
20260507073815 11 271 0.0 0.0 0.00 0.66 0.66 96 1012.4
20260507073312 11 307 1.6 3.2 0.00 0.66 0.66 96 1012.7
20260507072809 11 333 3.2 3.2 0.00 0.66 0.66 97 1012.3
20260507072308 11 348 0.0 1.6 0.00 0.66 0.66 98 1012.7
20260507071804 11 220 0.0 0.0 0.00 0.66 0.66 98 1012.4
20260507071300 11 217 0.0 0.0 0.00 0.66 0.66 98 1012.5
20260507070757 11 349 0.0 0.0 0.00 0.66 0.66 98 1012.8
20260507070254 11 310 1.6 1.6 0.00 0.66 0.66 98 1012.8
20260507065751 11 181 0.0 0.0 0.00 0.66 0.66 98 1012.7
20260507065247 11 198 1.6 3.2 0.00 0.66 0.66 98 1012.7
20260507064745 12 299 1.6 1.6 0.00 0.66 0.66 98 1012.6
20260507064243 12 349 0.0 0.0 0.00 0.66 0.66 98 1012.4
20260507063740 12 55 0.0 0.0 0.00 0.66 0.66 98 1012.5
20260507063237 12 282 1.6 1.6 0.00 0.66 0.66 98 1012.7
20260507062734 12 316 0.0 1.6 0.00 0.66 0.66 98 1012.4
20260507062231 12 108 0.0 0.0 0.00 0.66 0.66 98 1012.9
20260507061730 12 342 0.0 0.0 0.00 0.66 0.66 98 1012.5
20260507061227 12 339 1.6 1.6 0.00 0.66 0.66 97 1012.6
20260507060725 12 317 0.0 0.0 0.00 0.66 0.66 97 1012.4
20260507060221 12 297 0.0 1.6 0.00 0.66 0.66 97 1012.6
20260507055718 12 54 0.0 0.0 0.00 0.66 0.66 97 1012.6
20260507055213 12 255 1.6 1.6 0.00 0.66 0.66 97 1012.9
20260507054709 12 32 0.0 0.0 0.00 0.66 0.66 97 1012.8
20260507054207 12 273 1.6 3.2 0.13 0.66 0.66 97 1012.9
20260507053704 12 352 0.0 0.0 0.13 0.66 0.66 97 1012.8
20260507053202 13 329 1.6 3.2 0.00 0.64 0.64 98 1012.5
20260507052701 13 337 1.6 1.6 0.00 0.64 0.64 98 1012.8
20260507052156 13 0 0.0 0.0 0.18 0.64 0.64 98 1012.8
20260507051654 13 314 0.0 0.0 0.89 0.64 0.64 97 1012.6
20260507051150 13 240 0.0 0.0 2.11 0.61 0.61 97 1012.9
20260507050647 14 270 3.2 3.2 1.68 0.51 0.51 96 1013.1
20260507050144 14 298 1.6 1.6 1.07 0.25 0.25 95 1013.0
20260507045640 15 8 1.6 1.6 1.07 0.18 0.18 93 1013.0
20260507045132 15 231 0.0 0.0 0.61 0.10 0.10 90 1012.6
20260507044629 15 312 0.0 0.0 0.00 0.00 0.00 88 1012.7
20260507044126 15 316 0.0 0.0 0.00 0.00 0.00 87 1012.3
20260507043621 15 173 0.0 0.0 0.00 0.00 0.00 85 1012.6
20260507043119 15 212 3.2 3.2 0.00 0.00 0.00 86 1012.5
20260507042614 15 242 1.6 3.2 0.00 0.00 0.00 85 1012.6
20260507042104 16 312 0.0 0.0 0.00 0.00 0.00 86 1012.4
20260507041601 16 2 0.0 0.0 0.00 0.00 0.00 84 1012.1
20260507041058 16 192 4.8 6.4 0.00 0.00 0.00 85 1012.2
20260507040555 16 243 0.0 1.6 0.00 0.00 0.00 86 1012.1
20260507040051 16 335 3.2 3.2 0.00 0.28 0.28 86 1011.8
20260507035547 16 305 0.0 0.0 0.00 0.28 0.28 87 1011.7
20260507035043 16 338 0.0 0.0 0.00 0.28 0.28 86 1011.8
20260507034540 16 330 0.0 0.0 0.00 0.28 0.28 85 1011.7
20260507034038 17 336 0.0 0.0 0.00 0.28 0.28 86 1011.8
20260507033536 17 320 1.6 3.2 0.00 0.28 0.28 86 1012.4
20260507033033 17 270 3.2 3.2 0.00 0.28 0.28 86 1012.2
20260507032530 17 323 3.2 3.2 0.00 0.28 0.28 86 1011.8
20260507032026 17 355 0.0 0.0 0.00 0.28 0.28 86 1011.8
20260507031522 17 278 0.0 0.0 0.00 0.28 0.28 86 1012.0
20260507031020 17 303 1.6 1.6 0.00 0.28 0.28 86 1011.9
20260507030516 17 251 1.6 1.6 0.00 0.28 0.28 85 1011.6
20260507030014 17 307 1.6 1.6 0.00 0.28 0.28 84 1011.2
20260507025511 17 209 1.6 3.2 0.00 0.28 0.28 83 1011.5
20260507025009 17 323 0.0 0.0 0.00 0.28 0.28 83 1011.5
20260507024506 17 239 1.6 1.6 0.00 0.28 0.28 82 1011.4
20260507024003 17 236 4.8 6.4 0.00 0.28 0.28 81 1011.2
20260507023459 18 340 3.2 3.2 0.00 0.28 0.28 81 1011.0
20260507022956 18 319 0.0 1.6 0.00 0.28 0.28 80 1011.1
20260507022453 18 338 3.2 4.8 0.00 0.28 0.28 81 1011.3
20260507021948 18 1 0.0 0.0 0.00 0.28 0.28 82 1011.2
20260507021444 18 27 3.2 4.8 0.00 0.28 0.28 81 1011.4
20260507020942 18 290 9.7 12.9 0.00 0.28 0.28 83 1011.5
20260507020438 18 141 1.6 3.2 0.00 0.28 0.28 84 1011.1
20260507015935 18 26 1.6 3.2 0.00 0.28 0.28 88 1010.9
20260507015433 18 343 1.6 1.6 0.00 0.28 0.28 88 1011.1
20260507014924 19 194 4.8 6.4 0.00 0.28 0.28 88 1011.1
20260507014420 19 340 4.8 6.4 0.00 0.28 0.28 87 1011.2
20260507013916 19 273 6.4 9.7 0.00 0.28 0.28 87 1011.4
20260507013413 19 302 4.8 6.4 0.00 0.28 0.28 86 1011.4
20260507012906 19 329 6.4 11.3 0.00 0.28 0.28 88 1011.4
20260507012401 19 120 0.0 0.0 0.00 0.28 0.28 88 1011.2
20260507011853 19 327 1.6 3.2 0.00 0.28 0.28 88 1011.2
20260507011349 19 239 0.0 0.0 0.00 0.28 0.28 88 1011.4
20260507010843 19 253 0.0 0.0 0.00 0.28 0.28 87 1011.1
20260507010339 19 257 0.0 0.0 0.00 0.28 0.28 87 1010.9
20260507005837 20 112 0.0 0.0 0.00 0.28 0.28 87 1011.0
20260507005333 20 109 0.0 0.0 0.00 0.28 0.28 86 1010.9
20260507004831 20 185 3.2 3.2 0.00 0.28 0.28 86 1011.0
20260507004327 20 197 1.6 3.2 0.00 0.28 0.28 86 1010.9
20260507003824 20 279 0.0 1.6 0.00 0.28 0.28 86 1010.9
20260507003321 20 204 0.0 0.0 0.00 0.28 0.28 86 1010.8
20260507002815 20 276 1.6 1.6 0.00 0.28 0.28 86 1010.7
20260507002311 20 263 1.6 1.6 0.00 0.28 0.28 86 1010.8
20260507001803 20 355 0.0 0.0 0.00 0.28 0.28 86 1010.6
20260507001300 20 243 0.0 0.0 0.00 0.28 0.28 85 1010.6
20260507000756 20 236 1.6 1.6 0.00 0.28 0.28 85 1010.6
20260507000252 20 249 0.0 0.0 0.00 0.28 0.28 86 1010.6
20260506235749 20 144 1.6 3.2 0.00 0.28 0.28 85 1010.4
20260506235244 20 270 1.6 1.6 0.00 0.28 0.28 85 1010.5
20260506234742 20 188 0.0 1.6 0.00 0.28 0.28 85 1010.2
20260506234239 20 56 0.0 0.0 0.00 0.28 0.28 85 1010.3
20260506233736 20 253 0.0 0.0 0.00 0.28 0.28 85 1010.2
20260506233233 20 69 0.0 0.0 0.00 0.28 0.28 85 1010.1
20260506232729 20 213 1.6 3.2 0.00 0.28 0.28 84 1009.9
20260506232224 20 217 0.0 0.0 0.00 0.28 0.28 84 1010.0
20260506231722 20 258 1.6 3.2 0.00 0.28 0.28 84 1010.0
20260506231220 20 2 0.0 0.0 0.00 0.28 0.28 84 1010.3
20260506230716 20 258 0.0 0.0 0.00 0.28 0.28 84 1010.2
20260506230213 20 314 0.0 0.0 0.00 0.28 0.28 84 1010.1
20260506225710 20 320 0.0 0.0 0.00 0.28 0.28 83 1010.0
20260506225207 20 263 0.0 0.0 0.00 0.28 0.28 83 1010.0
20260506224703 20 175 0.0 0.0 0.00 0.28 0.28 83 1009.9
20260506224201 20 187 0.0 0.0 0.00 0.28 0.28 83 1010.1
20260506223656 20 291 0.0 0.0 0.00 0.28 0.28 83 1010.0
20260506223152 20 354 0.0 0.0 0.00 0.28 0.28 83 1010.1
20260506222649 20 270 0.0 0.0 0.00 0.28 0.28 83 1010.0
20260506222145 20 13 0.0 1.6 0.00 0.28 0.28 82 1010.1
20260506221644 20 356 0.0 0.0 0.00 0.28 0.28 82 1010.1
20260506221141 21 170 4.8 6.4 0.00 0.28 0.28 82 1010.1
20260506220638 21 321 0.0 1.6 0.00 0.28 0.28 82 1010.0
20260506220133 21 158 6.4 9.7 0.00 0.28 0.28 81 1009.9
20260506215630 21 163 3.2 4.8 0.00 0.28 0.28 81 1009.9
20260506215125 21 298 1.6 3.2 0.00 0.28 0.28 81 1010.1
20260506214622 21 288 4.8 6.4 0.00 0.28 0.28 81 1009.9
20260506214120 21 8 0.0 0.0 0.00 0.28 0.28 81 1010.0
20260506213618 21 196 1.6 4.8 0.00 0.28 0.28 80 1009.8
20260506213115 21 306 0.0 1.6 0.00 0.28 0.28 81 1009.9
20260506212612 21 98 1.6 3.2 0.00 0.28 0.28 81 1010.0
20260506212107 21 128 1.6 3.2 0.00 0.28 0.28 80 1009.8
20260506211603 21 336 1.6 3.2 0.00 0.28 0.28 81 1009.6
20260506211100 21 304 0.0 0.0 0.00 0.28 0.28 81 1009.9
20260506210556 21 128 3.2 4.8 0.00 0.28 0.28 80 1009.4
20260506210053 21 137 1.6 1.6 0.00 0.28 0.28 81 1009.8
20260506205550 21 266 0.0 0.0 0.00 0.28 0.28 82 1009.4
20260506205044 20 122 0.0 0.0 0.00 0.28 0.28 82 1009.6
20260506204543 20 252 3.2 4.8 0.00 0.28 0.28 81 1009.4
20260506204039 21 200 3.2 3.2 0.00 0.28 0.28 82 1009.8
20260506203538 21 190 1.6 1.6 0.00 0.28 0.28 81 1009.5
20260506203034 21 31 0.0 1.6 0.00 0.28 0.28 79 1009.6
20260506202532 21 179 0.0 0.0 0.00 0.28 0.28 80 1009.6
20260506202028 21 189 0.0 1.6 0.00 0.28 0.28 81 1009.4
20260506201526 21 164 4.8 4.8 0.00 0.28 0.28 80 1009.5
20260506201022 21 309 1.6 1.6 0.00 0.28 0.28 78 1009.3
20260506200518 22 237 1.6 3.2 0.00 0.28 0.28 78 1009.5
20260506200015 22 286 3.2 3.2 0.00 0.28 0.28 76 1009.6
20260506195512 22 352 3.2 3.2 0.00 0.28 0.28 78 1009.4
20260506195008 21 34 1.6 3.2 0.00 0.28 0.28 77 1009.5
20260506194506 21 335 0.0 1.6 0.00 0.28 0.28 81 1009.8
20260506194002 21 16 1.6 1.6 0.00 0.28 0.28 81 1009.7
20260506193500 21 217 0.0 0.0 0.00 0.28 0.28 82 1009.5
20260506192956 20 104 1.6 1.6 0.00 0.28 0.28 82 1009.7
20260506192453 20 123 1.6 3.2 0.00 0.28 0.28 82 1009.7
20260506191949 20 34 4.8 6.4 0.00 0.28 0.28 82 1010.0
20260506191447 20 297 0.0 1.6 0.00 0.28 0.28 83 1009.9
20260506190942 20 240 1.6 3.2 0.00 0.28 0.28 84 1010.1
20260506190440 20 242 4.8 6.4 0.00 0.28 0.28 83 1010.0
20260506185937 20 27 0.0 0.0 0.00 0.28 0.28 83 1010.2
20260506185434 20 324 1.6 3.2 0.00 0.28 0.28 84 1010.3
20260506184931 19 168 0.0 0.0 0.00 0.28 0.28 85 1010.5
20260506184427 19 308 0.0 1.6 0.00 0.28 0.28 86 1010.4
20260506183925 19 95 0.0 0.0 0.00 0.28 0.28 86 1010.3
20260506183420 18 211 0.0 1.6 0.00 0.28 0.28 86 1010.5
20260506182912 18 114 6.4 11.3 0.00 0.28 0.28 86 1010.4
20260506182409 18 178 1.6 1.6 0.00 0.28 0.28 87 1010.3
20260506181907 18 176 1.6 1.6 0.00 0.28 0.28 87 1010.4
20260506181404 18 226 0.0 1.6 0.00 0.28 0.28 87 1010.5
20260506180901 18 193 3.2 3.2 0.00 0.28 0.28 87 1010.7
20260506180357 18 251 9.7 22.5 0.00 0.28 0.28 88 1010.6
20260506175854 18 245 6.4 9.7 0.00 0.28 0.28 87 1010.8
20260506175350 18 256 8.0 12.9 0.00 0.28 0.28 88 1010.8
20260506174848 18 306 1.6 1.6 0.00 0.28 0.28 88 1010.7
20260506174345 18 326 3.2 4.8 0.00 0.28 0.28 89 1010.6
20260506173843 18 304 4.8 6.4 0.00 0.28 0.28 89 1010.4
20260506173339 18 246 1.6 3.2 0.00 0.28 0.28 91 1010.6
20260506172836 17 201 3.2 3.2 0.00 0.28 0.28 91 1010.8
20260506172333 17 347 4.8 4.8 0.00 0.28 0.28 91 1010.6
20260506171830 17 124 1.6 3.2 0.00 0.28 0.28 92 1010.7
20260506171327 17 314 1.6 3.2 0.00 0.28 0.28 92 1010.9
20260506170824 17 323 1.6 1.6 0.00 0.28 0.28 93 1010.6
20260506170315 17 161 4.8 6.4 0.00 0.28 0.28 93 1010.9
20260506165814 17 155 1.6 1.6 0.00 0.28 0.28 93 1010.8
20260506165311 17 311 4.8 6.4 0.00 0.28 0.28 93 1011.0
20260506164808 17 260 1.6 1.6 0.00 0.28 0.28 94 1010.9
20260506164304 17 273 1.6 3.2 0.00 0.28 0.28 95 1010.9
20260506163802 16 71 3.2 4.8 0.00 0.28 0.28 95 1010.9
20260506163256 16 259 1.6 3.2 0.00 0.28 0.28 95 1010.9
20260506162752 16 338 4.8 9.7 0.00 0.28 0.28 95 1010.9
20260506162250 16 315 6.4 9.7 0.00 0.28 0.28 96 1011.1
20260506161747 16 347 1.6 1.6 0.00 0.28 0.28 96 1011.2
20260506161244 16 306 4.8 11.3 0.00 0.28 0.28 96 1011.0
20260506160741 16 66 0.0 1.6 0.00 0.28 0.28 96 1011.2
20260506160238 16 40 1.6 1.6 0.00 0.28 0.28 96 1011.1
20260506155731 16 162 0.0 1.6 0.00 0.28 0.28 97 1011.3
20260506155227 16 324 1.6 3.2 0.00 0.28 0.28 97 1011.3
20260506153335 16 148 1.6 1.6 0.00 0.28 0.28 97 1011.3
20260506152831 16 357 0.0 0.0 0.00 0.28 0.28 98 1011.1
20260506152329 16 348 3.2 3.2 0.00 0.28 0.28 98 1011.4
20260506151827 16 176 3.2 4.8 0.00 0.28 0.28 98 1011.9
20260506151323 16 53 1.6 1.6 0.13 0.28 0.28 98 1011.9
20260506150820 16 55 0.0 1.6 0.13 0.28 0.28 98 1011.8
20260506150318 16 167 1.6 1.6 0.00 0.25 0.25 97 1011.7
20260506145814 16 250 1.6 3.2 0.18 0.25 0.25 97 1011.9
20260506145310 16 293 1.6 1.6 0.48 0.25 0.25 97 1012.0
20260506144808 16 149 1.6 3.2 0.30 0.23 0.23 96 1012.1
20260506144305 16 280 1.6 1.6 0.00 0.18 0.18 96 1012.0
20260506143803 16 356 1.6 3.2 0.00 0.18 0.18 96 1011.6
20260506143300 16 167 1.6 3.2 0.00 0.18 0.18 95 1011.9
20260506142758 16 36 0.0 0.0 0.13 0.18 0.18 95 1011.7
20260506142256 16 254 0.0 1.6 0.13 0.18 0.18 95 1011.8
20260506141754 16 168 4.8 4.8 0.18 0.15 0.15 95 1011.7
20260506141252 16 134 0.0 1.6 0.18 0.15 0.15 95 1011.8
20260506140749 16 1 3.2 4.8 0.00 0.13 0.13 95 1011.9
20260506140246 16 222 1.6 1.6 0.13 0.13 0.13 95 1012.0
20260506135743 16 83 0.0 0.0 0.13 0.13 0.13 94 1012.0
20260506135239 16 250 0.0 1.6 0.18 0.10 0.10 94 1012.1
20260506134736 16 137 0.0 1.6 0.18 0.10 0.10 93 1012.4
20260506134232 16 301 1.6 3.2 0.18 0.08 0.08 93 1012.5
20260506133730 16 0 1.6 3.2 0.30 0.08 0.08 92 1012.3
20260506133226 17 174 1.6 3.2 0.13 0.05 0.05 91 1012.3
20260506132723 17 266 0.0 0.0 0.13 0.05 0.05 90 1012.1
20260506132220 17 232 0.0 0.0 0.18 0.03 0.03 89 1012.1
20260506131718 17 214 0.0 0.0 0.18 0.03 0.03 88 1011.9
20260506131214 17 354 0.0 1.6 0.00 0.00 0.00 87 1011.9
20260506130711 17 9 3.2 3.2 0.00 0.00 0.00 86 1012.0
20260506130208 17 332 3.2 4.8 0.00 0.00 0.00 83 1011.6
20260506125706 18 301 3.2 9.7 0.00 0.00 0.00 83 1011.6
20260506125204 18 256 0.0 0.0 0.00 0.00 0.00 82 1011.6
20260506124701 18 220 1.6 3.2 0.00 0.00 0.00 81 1011.8
20260506124159 18 281 3.2 3.2 0.00 0.00 0.00 82 1011.8
20260506123656 18 199 0.0 1.6 0.00 0.00 0.00 82 1011.7
20260506123155 18 40 1.6 3.2 0.00 0.00 0.00 80 1011.9
20260506122651 18 50 0.0 0.0 0.00 0.00 0.00 80 1012.0
20260506122149 18 215 1.6 3.2 0.00 0.00 0.00 80 1012.2
20260506121646 18 225 3.2 6.4 0.00 0.00 0.00 79 1012.1
20260506121143 18 125 3.2 4.8 0.00 0.00 0.00 78 1012.1
20260506120641 18 190 3.2 4.8 0.00 0.00 0.00 77 1012.0
20260506120138 18 297 0.0 0.0 0.00 0.00 0.00 76 1012.2
20260506115637 18 324 3.2 3.2 0.00 0.00 0.00 76 1012.1
20260506115135 18 23 0.0 0.0 0.00 0.00 0.00 76 1012.1
20260506114631 18 159 4.8 4.8 0.00 0.00 0.00 76 1012.1
20260506114129 18 19 0.0 1.6 0.00 0.00 0.00 75 1011.8
20260506113628 18 28 0.0 1.6 0.00 0.00 0.00 76 1011.7
20260506113124 18 35 0.0 1.6 0.00 0.00 0.00 75 1011.5
20260506112620 19 299 1.6 1.6 0.00 0.00 0.00 75 1011.5
20260506112118 18 160 0.0 0.0 0.00 0.00 0.00 75 1011.7
20260506111615 18 44 1.6 3.2 0.00 0.00 0.00 75 1011.6
20260506111113 18 154 3.2 3.2 0.00 0.00 0.00 75 1011.5
20260506110610 18 6 3.2 3.2 0.00 0.00 0.00 76 1011.5
20260506110108 18 148 0.0 0.0 0.00 0.00 0.00 75 1011.6
20260506105604 18 293 3.2 3.2 0.00 0.00 0.00 75 1011.4
20260506105101 18 99 1.6 1.6 0.00 0.00 0.00 75 1011.4
20260506104559 18 309 0.0 0.0 0.00 0.00 0.00 75 1011.1
20260506104056 18 220 1.6 3.2 0.00 0.00 0.00 75 1011.3
20260506103553 18 211 1.6 3.2 0.00 0.00 0.00 75 1011.2
20260506103050 18 200 0.0 0.0 0.00 0.00 0.00 75 1011.3
20260506102549 18 300 0.0 1.6 0.00 0.00 0.00 75 1011.3
20260506102046 18 172 6.4 9.7 0.00 0.00 0.00 75 1011.3